Regional Weather Roundup
Issued by NWS

Home | Current Version | Previous Version | Graphics & Text | Print | Product List | Glossary Off
Versions: 1 2 3 4 5 6 7 8 9 10 11 12 13 14 15 16 17 18 19 20 21 22 23 24 25 26 27 28

000
ASUS45 KBOU 231006
RWRCO

WEATHER ROUNDUP FOR COLORADO
NATIONAL WEATHER SERVICE DENVER/BOULDER CO
400 AM MDT WED APR 23 2014

NOTE: "FAIR" INDICATES FEW OR NO CLOUDS BELOW 12000 FEET WITH NO
SIGNIFICANT WEATHER AND/OR OBSTRUCTIONS TO VISIBILITY.

COZ001>005-013-030-031-231100-
...NORTHWEST COLORADO...

CITY           SKY/WX    TMP DP  RH WIND       PRES   REMARKS
CRAIG          LGT RAIN  39  35  86 NW16G24   29.78R
HAYDEN         CLOUDY    43  36  75 NW16      29.77R
MEEKER         LGT RAIN  47  32  56 W16G32    29.79R
MOUNT WERNER   CLOUDY    34  32  93 W17G25    29.86R VSB<1/4 WCI  23
STEAMBOAT SPGS CLOUDY    43  36  74 SW8       29.76R
WALDEN         PTCLDY    41  30  65 SW18      29.73R
$$

COZ006>008-011-231100-
...WEST CENTRAL VALLEYS...

CITY           SKY/WX    TMP DP  RH WIND       PRES   REMARKS
GRAND JUNCTION MOCLDY    60  24  25 W16G29    29.68R
MONTROSE       MOCLDY    60  27  28 SW14      29.75R
EAGLE          CLOUDY    57  25  28 SW25      29.71S
RIFLE          CLOUDY    62  21  20 SW21G30   29.67R
DELTA          NOT AVBL
NUCLA          NOT AVBL
$$

COZ017>023-064>068-231100-
...SOUTHWEST COLORADO...

CITY           SKY/WX    TMP DP  RH WIND       PRES   REMARKS
DURANGO        CLOUDY    52  25  35 W9        29.85F
CORTEZ         PTCLDY    56  27  32 W14G23    29.82R
PAGOSA SPRINGS CLOUDY    53  20  27 SW3       29.89F
TELLURIDE      CLOUDY    46  21  36 S9G30     29.91R
WOLF CREEK PAS CLOUDY    32  21  64 SW22G39   30.04S WCI  19
$$

COZ009-010-012-014-032>034-037-058>063-231100-
...CENTRAL COLORADO...

CITY           SKY/WX    TMP DP  RH WIND       PRES   REMARKS
ASPEN          CLOUDY    53  20  27 VRB5      29.76S
BUENA VISTA    CLOUDY    49  25  38 S7G20     29.80R
COPPER MTN     MOCLDY    37  19  48 S23G35    29.94F
BERTHOUD PASS  FAIR      30  21  69 MISG      29.94F
COTTONWOOD PAS CLOUDY    45  21  39 W15G25    29.87S
GUNNISON       MOCLDY    41  30  65 CALM      29.85S
KREMMLING      MOCLDY    54  18  24 SW21G30   29.71S
LEADVILLE      MOCLDY    41  16  36 SW20G29   29.83F
MONARCH PASS   MOCLDY    32  18  55 W36G53    30.04R WCI  16
SALIDA         CLOUDY    53  26  35 S14G21    29.86S
SUNLIGHT       CLOUDY    37  28  70 SW7       29.87R
WILKERSON PASS PTCLDY    34  21  60 S10G23    29.88F WCI  26
$$

COZ069>075-231100-
...SAN LUIS VALLEY/SANGRE DE CRISTO MOUNTAINS...

CITY           SKY/WX    TMP DP  RH WIND       PRES   REMARKS
ALAMOSA        MOCLDY    47  29  49 W12       29.84F
LA VETA PASS   CLOUDY    39  27  60 SW14G25   29.91F
SAGUACHE       PTCLDY    43  30  61 E7        29.84F
$$

COZ035-036-038>040-231100-
...NORTHERN COLORADO FRONT RANGE...

CITY           SKY/WX    TMP DP  RH WIND       PRES   REMARKS
DENVER INTL AP CLOUDY    60  30  32 S18       29.59F
DMNS CITY PARK   N/A     59  30  33 S6G12     29.59F
AURORA         MOCLDY    61  30  31 S16       29.62F
FRONT RANGE AP NOT AVBL
ERIE MUNI ARPT MOCLDY    55  34  44 SW6       29.57S
BOULDER MUN AP MOCLDY    52  32  46 S6        29.57F
CENTENNIAL     MOCLDY    56  30  37 S12       29.63F
BROOMFIELD     MOCLDY    55  32  41 SW8       29.60F
FORT COLLINS   MOCLDY    46  36  66 S3        29.58S
LONGMONT       NOT AVBL
$$

COZ041-046-047-076>085-087-088-231100-
...PIKES PEAK/PALMER DIVIDE AND SOUTHERN FOOTHILLS...

CITY           SKY/WX    TMP DP  RH WIND       PRES   REMARKS
COLO. SPRINGS  PTCLDY    59  29  31 SW21G30   29.71F
A. F. ACADEMY  PTCLDY    47  32  55 NE2       29.70F
ELLICOTT       NOT AVBL
FALCON         PTCLDY    53  29  40 S18       29.75S
FORT CARSON    PTCLDY    58  30  33 SW20      29.68F
LIMON          CLOUDY    55  37  50 S15       29.67R
MONUMENT HILL  MOCLDY    46  30  53 S8G18     29.71F
TRINIDAD       PTCLDY    56  38  50 SW7       29.76F
$$

COZ042>045-048>051-090-091-231100-
...NORTHEAST COLORADO...

CITY           SKY/WX    TMP DP  RH WIND       PRES   REMARKS
GREELEY ARPT   MOCLDY    45  36  70 CALM      29.56F
AKRON          CLOUDY    60  38  43 SW17      29.57F
BURLINGTON     CLOUDY    61  41  47 S30G37    29.65S
WRAY           CLOUDY    60  43  53 S16G23    29.58S
STERLING       NOT AVBL
HOLYOKE        NOT AVBL
FORT MORGAN    NOT AVBL
$$

COZ086-089-092>099-231100-
...SOUTHEAST COLORADO...

CITY           SKY/WX    TMP DP  RH WIND       PRES   REMARKS
PUEBLO         MOCLDY    59  36  42 N7        29.65F
LA JUNTA       CLOUDY    68  41  37 S24G36    29.66S
LAMAR          CLOUDY    63  41  44 S24G30    29.65F
SPRINGFIELD      N/A     59  39  47 S21       29.77F
$$



USA.gov is the U.S. government's official web portal to all federal, state and local government web resources and services.